SAS1877 ENZV-EKCH

Flight info

Callsign SAS1877
Flight time 0h 56m
Altitude 31000
Route BIVKI DCT ODRID DCT TESPI
Aircraft A320/M-SDE3FGHIJ1RWXYZ/ALB1

Departure

Time 2026-05-06 09:23
Airport Stavanger Airport, Sola (ENZV)

Arrival

Time 2026-05-06 10:19
Airport Copenhagen Kastrup Airport (EKCH)
Time Latitude Longitude Altitude Speed Heading
2026-05-06 08:52 58.88151 5.63084 25 ft 0 kts 315°
2026-05-06 09:13 58.88150 5.63086 25 ft 2 kts 315°
2026-05-06 09:13 58.88132 5.63121 25 ft 4 kts 315°
2026-05-06 09:13 58.88121 5.63142 29 ft 1 kts 315°
2026-05-06 09:16 58.88122 5.63162 26 ft 1 kts 122°
2026-05-06 09:16 58.88114 5.63171 27 ft 2 kts 140°
2026-05-06 09:16 58.88108 5.63226 28 ft 6 kts 70°
2026-05-06 09:16 58.88150 5.63280 29 ft 8 kts 23°
2026-05-06 09:17 58.88202 5.63299 30 ft 8 kts
2026-05-06 09:17 58.88260 5.63305 31 ft 8 kts 30°
2026-05-06 09:17 58.88284 5.63388 31 ft 8 kts 53°
2026-05-06 09:17 58.88343 5.63424 31 ft 10 kts
2026-05-06 09:18 58.88425 5.63423 31 ft 14 kts 359°
2026-05-06 09:18 58.88520 5.63419 31 ft 13 kts 359°
2026-05-06 09:18 58.88618 5.63416 31 ft 14 kts 360°
2026-05-06 09:18 58.88716 5.63415 32 ft 13 kts 359°
2026-05-06 09:19 58.88812 5.63412 31 ft 14 kts 359°
2026-05-06 09:19 58.88921 5.63408 29 ft 17 kts 359°
2026-05-06 09:19 58.89034 5.63402 27 ft 18 kts 358°
2026-05-06 09:19 58.89173 5.63391 28 ft 22 kts 360°
2026-05-06 09:20 58.89253 5.63394 28 ft 11 kts
2026-05-06 09:20 58.89321 5.63415 22 ft 13 kts 26°
2026-05-06 09:20 58.89342 5.63475 20 ft 1 kts 89°
2026-05-06 09:20 58.89342 5.63479 22 ft 2 kts 89°
2026-05-06 09:21 58.89343 5.63545 19 ft 8 kts 88°
2026-05-06 09:21 58.89345 5.63662 18 ft 7 kts 89°
2026-05-06 09:21 58.89318 5.63740 21 ft 8 kts 175°
2026-05-06 09:21 58.89303 5.63740 19 ft 0 kts 179°
2026-05-06 09:22 58.89035 5.63747 23 ft 75 kts 179°
2026-05-06 09:22 58.88307 5.63766 31 ft 132 kts 179°
2026-05-06 09:22 58.87256 5.63795 225 ft 157 kts 180°
2026-05-06 09:23 58.86186 5.63830 888 ft 154 kts 180°
2026-05-06 09:23 58.85087 5.63898 1333 ft 167 kts 179°
2026-05-06 09:23 58.83861 5.63957 1687 ft 185 kts 180°
2026-05-06 09:23 58.82504 5.64000 2027 ft 207 kts 180°
2026-05-06 09:24 58.80966 5.64040 2382 ft 233 kts 180°
2026-05-06 09:24 58.79274 5.64082 2919 ft 253 kts 179°
2026-05-06 09:24 58.77478 5.64119 3776 ft 261 kts 180°
2026-05-06 09:24 58.75650 5.64160 4703 ft 265 kts 179°
2026-05-06 09:25 58.73796 5.64206 5620 ft 269 kts 179°
2026-05-06 09:25 58.71916 5.64259 6493 ft 273 kts 179°
2026-05-06 09:25 58.70007 5.64659 7223 ft 278 kts 166°
2026-05-06 09:25 58.68198 5.65989 8117 ft 280 kts 151°
2026-05-06 09:26 58.66611 5.68192 8946 ft 284 kts 137°
2026-05-06 09:26 58.65156 5.70792 9762 ft 287 kts 137°
2026-05-06 09:26 58.63672 5.73445 10388 ft 300 kts 137°
2026-05-06 09:26 58.62088 5.76280 10660 ft 322 kts 137°
2026-05-06 09:27 58.60424 5.79252 11231 ft 331 kts 138°
2026-05-06 09:27 58.58728 5.82276 11917 ft 336 kts 138°
2026-05-06 09:27 58.57008 5.85341 12612 ft 340 kts 138°
2026-05-06 09:27 58.55266 5.88437 13296 ft 343 kts 139°
2026-05-06 09:28 58.53502 5.91559 13961 ft 347 kts 139°
2026-05-06 09:28 58.51717 5.94711 14615 ft 351 kts 139°
2026-05-06 09:28 58.49911 5.97890 15250 ft 354 kts 139°
2026-05-06 09:28 58.48088 6.01094 15856 ft 358 kts 139°
2026-05-06 09:29 58.46244 6.04332 16466 ft 362 kts 139°
2026-05-06 09:29 58.44383 6.07599 17068 ft 365 kts 140°
2026-05-06 09:29 58.42509 6.10886 17655 ft 368 kts 140°
2026-05-06 09:29 58.40612 6.14207 18239 ft 372 kts 140°
2026-05-06 09:30 58.38696 6.17552 18824 ft 375 kts 140°
2026-05-06 09:30 58.36763 6.20924 19423 ft 378 kts 140°
2026-05-06 09:30 58.34814 6.24322 20013 ft 381 kts 140°
2026-05-06 09:30 58.32880 6.27816 20599 ft 385 kts 138°
2026-05-06 09:31 58.30982 6.31441 21140 ft 389 kts 137°
2026-05-06 09:31 58.29091 6.35156 21680 ft 392 kts 137°
2026-05-06 09:31 58.27191 6.38909 22202 ft 395 kts 137°
2026-05-06 09:31 58.25269 6.42679 22711 ft 399 kts 137°
2026-05-06 09:32 58.23323 6.46458 23210 ft 402 kts 137°
2026-05-06 09:32 58.21354 6.50249 23702 ft 405 kts 138°
2026-05-06 09:32 58.19369 6.54039 24232 ft 405 kts 139°
2026-05-06 09:32 58.17355 6.57566 25019 ft 399 kts 141°
2026-05-06 09:33 58.15320 6.61249 25221 ft 410 kts 139°
2026-05-06 09:33 58.13286 6.65187 25595 ft 415 kts 137°
2026-05-06 09:33 58.11320 6.69095 26009 ft 418 kts 137°
2026-05-06 09:33 58.09308 6.73090 26413 ft 420 kts 137°
2026-05-06 09:34 58.07271 6.77071 26843 ft 422 kts 138°
2026-05-06 09:34 58.05204 6.81033 27246 ft 424 kts 139°
2026-05-06 09:34 58.03113 6.84985 27626 ft 426 kts 139°
2026-05-06 09:34 58.01002 6.88938 28010 ft 428 kts 139°
2026-05-06 09:35 57.98880 6.92895 28382 ft 430 kts 139°
2026-05-06 09:35 57.96753 6.96864 28754 ft 432 kts 139°
2026-05-06 09:35 57.94618 7.00855 29132 ft 433 kts 139°
2026-05-06 09:35 57.92477 7.04860 29489 ft 435 kts 139°
2026-05-06 09:36 57.90325 7.08876 29823 ft 437 kts 139°
2026-05-06 09:36 57.88163 7.12909 30173 ft 439 kts 139°
2026-05-06 09:36 57.85991 7.16958 30504 ft 441 kts 139°
2026-05-06 09:36 57.83810 7.21012 30829 ft 443 kts 139°
2026-05-06 09:37 57.81614 7.25084 30982 ft 442 kts 139°
2026-05-06 09:37 57.79464 7.29067 31008 ft 426 kts 140°
2026-05-06 09:37 57.77372 7.32927 31008 ft 419 kts 140°
2026-05-06 09:38 57.73229 7.40519 31008 ft 416 kts 140°
2026-05-06 09:38 57.69090 7.48069 31008 ft 415 kts 140°
2026-05-06 09:39 57.64954 7.55584 31008 ft 415 kts 140°
2026-05-06 09:39 57.60807 7.63092 31009 ft 415 kts 140°
2026-05-06 09:40 57.56663 7.70593 31009 ft 415 kts 140°
2026-05-06 09:40 57.50444 7.81818 31008 ft 415 kts 140°
2026-05-06 09:41 57.46283 7.89262 31006 ft 415 kts 140°
2026-05-06 09:41 57.42128 7.96684 31004 ft 415 kts 140°
2026-05-06 09:42 57.37998 8.04052 31003 ft 415 kts 140°
2026-05-06 09:42 57.33847 8.11415 30991 ft 400 kts 141°
2026-05-06 09:43 57.31880 8.14880 30986 ft 383 kts 141°
2026-05-06 09:43 57.29988 8.18224 30988 ft 370 kts 141°
2026-05-06 09:43 57.26344 8.24624 30987 ft 348 kts 141°
2026-05-06 09:44 57.22923 8.30546 30988 ft 327 kts 142°
2026-05-06 09:44 57.21232 8.33501 30994 ft 342 kts 141°
2026-05-06 09:44 57.19480 8.36602 30992 ft 356 kts 141°
2026-05-06 09:45 57.17659 8.39823 30991 ft 369 kts 141°
2026-05-06 09:45 57.15769 8.43157 30991 ft 383 kts 141°
2026-05-06 09:45 57.13807 8.46601 30988 ft 396 kts 141°
2026-05-06 09:45 57.11786 8.50136 30980 ft 406 kts 141°
2026-05-06 09:46 57.07645 8.57369 30980 ft 412 kts 141°
2026-05-06 09:46 57.03482 8.64608 30980 ft 412 kts 141°
2026-05-06 09:47 56.99310 8.71822 30981 ft 412 kts 141°
2026-05-06 09:47 56.95137 8.79021 30981 ft 412 kts 141°
2026-05-06 09:48 56.90959 8.86201 30985 ft 412 kts 141°
2026-05-06 09:48 56.86770 8.93352 30988 ft 412 kts 141°
2026-05-06 09:49 56.82583 9.00488 30993 ft 412 kts 141°
2026-05-06 09:49 56.78401 9.07607 30994 ft 411 kts 141°
2026-05-06 09:50 56.74241 9.14661 30995 ft 411 kts 141°
2026-05-06 09:50 56.70055 9.21736 30991 ft 410 kts 141°
2026-05-06 09:51 56.65870 9.28782 30988 ft 410 kts 141°
2026-05-06 09:51 56.61686 9.35804 30987 ft 409 kts 141°
2026-05-06 09:52 56.57500 9.42807 30990 ft 409 kts 141°
2026-05-06 09:52 56.53321 9.49793 30993 ft 409 kts 141°
2026-05-06 09:53 56.49138 9.56755 30992 ft 408 kts 141°
2026-05-06 09:53 56.44949 9.63702 30992 ft 408 kts 141°
2026-05-06 09:54 56.40758 9.70627 30992 ft 408 kts 141°
2026-05-06 09:54 56.36568 9.77520 30993 ft 408 kts 141°
2026-05-06 09:55 56.32379 9.84405 30993 ft 407 kts 141°
2026-05-06 09:55 56.28192 9.91261 30961 ft 406 kts 141°
2026-05-06 09:56 56.26122 9.94649 30700 ft 398 kts 141°
2026-05-06 09:56 56.24096 9.97967 30450 ft 391 kts 141°
2026-05-06 09:56 56.22092 10.01238 30199 ft 388 kts 141°
2026-05-06 09:56 56.20097 10.04481 29949 ft 386 kts 141°
2026-05-06 09:57 56.18106 10.07704 29703 ft 384 kts 141°
2026-05-06 09:57 56.16124 10.10917 29447 ft 383 kts 141°
2026-05-06 09:57 56.14147 10.14118 29196 ft 382 kts 141°
2026-05-06 09:57 56.12181 10.17298 28948 ft 381 kts 141°
2026-05-06 09:58 56.10214 10.20468 28705 ft 380 kts 142°
2026-05-06 09:58 56.08253 10.23620 28469 ft 376 kts 142°
2026-05-06 09:58 56.06314 10.26734 28140 ft 373 kts 142°
2026-05-06 09:58 56.04387 10.29835 27770 ft 372 kts 141°
2026-05-06 09:59 56.02470 10.32920 27391 ft 370 kts 141°
2026-05-06 09:59 56.00560 10.35987 27006 ft 368 kts 142°
2026-05-06 09:59 55.98659 10.39035 26610 ft 367 kts 141°
2026-05-06 09:59 55.96766 10.42061 26222 ft 365 kts 141°
2026-05-06 10:00 55.94900 10.45036 25834 ft 363 kts 141°
2026-05-06 10:00 55.92996 10.48070 25420 ft 362 kts 141°
2026-05-06 10:00 55.91365 10.51117 25037 ft 363 kts 130°
2026-05-06 10:00 55.90008 10.54916 24622 ft 365 kts 118°
2026-05-06 10:01 55.89110 10.59152 24195 ft 367 kts 106°
2026-05-06 10:01 55.88572 10.63598 23766 ft 367 kts 104°
2026-05-06 10:01 55.88041 10.68034 23339 ft 365 kts 104°
2026-05-06 10:01 55.87508 10.72460 22898 ft 365 kts 104°
2026-05-06 10:02 55.86968 10.76863 22474 ft 363 kts 104°
2026-05-06 10:02 55.86425 10.81248 22043 ft 362 kts 104°
2026-05-06 10:02 55.85888 10.85560 21624 ft 361 kts 104°
2026-05-06 10:02 55.85348 10.89910 21199 ft 359 kts 104°
2026-05-06 10:03 55.84806 10.94243 20775 ft 358 kts 105°
2026-05-06 10:03 55.84220 10.98533 20377 ft 355 kts 106°
2026-05-06 10:03 55.83600 11.02775 19977 ft 353 kts 107°
2026-05-06 10:03 55.82960 11.07032 19569 ft 351 kts 107°
2026-05-06 10:04 55.82325 11.11208 19178 ft 349 kts 107°
2026-05-06 10:04 55.81694 11.15360 18780 ft 347 kts 107°
2026-05-06 10:04 55.81071 11.19489 18388 ft 344 kts 107°
2026-05-06 10:04 55.80459 11.23585 17988 ft 343 kts 106°
2026-05-06 10:05 55.79853 11.27668 17601 ft 341 kts 106°
2026-05-06 10:05 55.79248 11.31726 17209 ft 338 kts 106°
2026-05-06 10:05 55.78650 11.35703 16836 ft 336 kts 106°
2026-05-06 10:05 55.78047 11.39699 16483 ft 333 kts 106°
2026-05-06 10:06 55.77461 11.43663 16133 ft 331 kts 103°
2026-05-06 10:06 55.77110 11.47688 15802 ft 328 kts 99°
2026-05-06 10:06 55.76799 11.51696 15419 ft 327 kts 99°
2026-05-06 10:06 55.76487 11.55687 15024 ft 326 kts 99°
2026-05-06 10:07 55.76175 11.59651 14660 ft 324 kts 99°
2026-05-06 10:07 55.75859 11.63589 14292 ft 322 kts 99°
2026-05-06 10:07 55.75540 11.67501 13969 ft 319 kts 99°
2026-05-06 10:07 55.75025 11.71307 13451 ft 313 kts 115°
2026-05-06 10:08 55.73883 11.74501 12963 ft 305 kts 132°
2026-05-06 10:08 55.72503 11.77354 12420 ft 304 kts 132°
2026-05-06 10:08 55.71572 11.79269 12009 ft 302 kts 132°
2026-05-06 10:08 55.70222 11.82040 11425 ft 303 kts 131°
2026-05-06 10:09 55.68834 11.84879 10805 ft 299 kts 131°
2026-05-06 10:09 55.67501 11.87605 10210 ft 294 kts 131°
2026-05-06 10:09 55.66166 11.90326 9605 ft 291 kts 131°
2026-05-06 10:09 55.64847 11.93011 9018 ft 287 kts 131°
2026-05-06 10:10 55.63540 11.95665 8403 ft 284 kts 131°
2026-05-06 10:10 55.62258 11.98291 7802 ft 281 kts 131°
2026-05-06 10:10 55.60987 12.00891 7200 ft 278 kts 131°
2026-05-06 10:10 55.59726 12.03450 6599 ft 275 kts 131°
2026-05-06 10:11 55.58467 12.05980 5995 ft 272 kts 131°
2026-05-06 10:11 55.57217 12.08462 5390 ft 270 kts 131°
2026-05-06 10:11 55.55966 12.10922 4796 ft 268 kts 131°
2026-05-06 10:11 55.54718 12.13368 4200 ft 272 kts 131°
2026-05-06 10:12 55.53430 12.15885 3578 ft 280 kts 131°
2026-05-06 10:12 55.52123 12.18433 3101 ft 275 kts 131°
2026-05-06 10:12 55.50884 12.20875 2836 ft 260 kts 127°
2026-05-06 10:12 55.50093 12.23645 2558 ft 249 kts 108°
2026-05-06 10:13 55.49598 12.26487 2283 ft 235 kts 105°
2026-05-06 10:13 55.49155 12.29207 2054 ft 228 kts 105°
2026-05-06 10:13 55.48733 12.31822 1984 ft 215 kts 105°
2026-05-06 10:13 55.48338 12.34275 1984 ft 201 kts 105°
2026-05-06 10:14 55.48018 12.36675 1987 ft 202 kts 91°
2026-05-06 10:14 55.48194 12.39113 2001 ft 196 kts 77°
2026-05-06 10:14 55.48498 12.41338 2003 ft 178 kts 75°
2026-05-06 10:14 55.48836 12.43331 1999 ft 161 kts 61°
2026-05-06 10:15 55.49430 12.44894 1951 ft 148 kts 53°
2026-05-06 10:15 55.50041 12.46297 1879 ft 141 kts 54°
2026-05-06 10:15 55.50608 12.47683 1892 ft 138 kts 51°
2026-05-06 10:15 55.51294 12.48873 1956 ft 139 kts 38°
2026-05-06 10:16 55.52047 12.49936 1934 ft 138 kts 51°
2026-05-06 10:16 55.52706 12.51170 1958 ft 141 kts 40°
2026-05-06 10:16 55.53506 12.52122 1735 ft 137 kts 32°
2026-05-06 10:16 55.54320 12.52966 1501 ft 135 kts 31°
2026-05-06 10:17 55.55092 12.53882 1211 ft 133 kts 39°
2026-05-06 10:17 55.55793 12.54933 1041 ft 133 kts 41°
2026-05-06 10:17 55.56478 12.56033 807 ft 133 kts 44°
2026-05-06 10:17 55.57157 12.57136 581 ft 132 kts 41°
2026-05-06 10:18 55.57845 12.58208 418 ft 132 kts 42°
2026-05-06 10:18 55.58538 12.59284 256 ft 133 kts 41°
2026-05-06 10:18 55.59230 12.60359 86 ft 133 kts 40°
2026-05-06 10:18 55.59877 12.61360 19 ft 107 kts 41°
2026-05-06 10:19 55.60334 12.62070 17 ft 75 kts 40°
2026-05-06 10:19 55.60705 12.62625 20 ft 66 kts 43°
2026-05-06 10:19 55.61024 12.63135 20 ft 60 kts 41°
2026-05-06 10:19 55.61302 12.63572 20 ft 39 kts 41°
2026-05-06 10:20 55.61478 12.63682 19 ft 21 kts 355°
2026-05-06 10:20 55.61587 12.63669 17 ft 15 kts
2026-05-06 10:20 55.61679 12.63775 18 ft 17 kts 41°
2026-05-06 10:20 55.61775 12.63923 17 ft 19 kts 41°
2026-05-06 10:21 55.61873 12.64071 19 ft 19 kts 38°
2026-05-06 10:21 55.61996 12.64174 17 ft 21 kts 25°
2026-05-06 10:21 55.62133 12.64291 17 ft 23 kts 25°
2026-05-06 10:21 55.62256 12.64386 16 ft 20 kts 15°
2026-05-06 10:22 55.62389 12.64449 19 ft 15 kts 15°
2026-05-06 10:22 55.62481 12.64480 17 ft 13 kts 348°
2026-05-06 10:22 55.62543 12.64348 18 ft 13 kts 303°
2026-05-06 10:22 55.62591 12.64262 17 ft 10 kts 353°
2026-05-06 10:23 55.62657 12.64306 18 ft 9 kts 21°
2026-05-06 10:23 55.62705 12.64341 20 ft 8 kts 24°
2026-05-06 10:23 55.62743 12.64374 17 ft 5 kts 24°
2026-05-06 10:23 55.62757 12.64423 17 ft 3 kts 89°
2026-05-06 10:24 55.62754 12.64452 17 ft 2 kts 100°
2026-05-06 10:24 55.62752 12.64470 17 ft 0 kts 100°
2026-05-06 10:24 55.62752 12.64472 17 ft 0 kts 100°
2026-05-06 10:24 55.62752 12.64474 17 ft 0 kts 100°